TimeCDT,TemperatureF,Dew PointF,Humidity,Sea Level PressureIn,VisibilityMPH,Wind Direction,Wind SpeedMPH,Gust SpeedMPH,PrecipitationIn,Events,Conditions,WindDirDegrees,DateUTC
12:53 AM,61.0,59.0,93,30.20,4.0,Calm,Calm,-,N/A,,Clear,0,2012-10-12 05:53:00
1:53 AM,60.1,57.0,90,30.19,4.0,Calm,Calm,-,N/A,,Clear,0,2012-10-12 06:53:00
2:53 AM,57.9,55.9,93,30.19,4.0,Calm,Calm,-,N/A,,Clear,0,2012-10-12 07:53:00
3:53 AM,57.0,55.9,96,30.18,4.0,Calm,Calm,-,N/A,,Clear,0,2012-10-12 08:53:00
4:53 AM,57.9,55.9,93,30.18,1.8,Calm,Calm,-,N/A,,Clear,0,2012-10-12 09:53:00
5:01 AM,57.2,57.2,100,30.20,3.0,Calm,Calm,-,N/A,,Clear,0,2012-10-12 10:01:00
5:53 AM,57.0,55.0,93,30.20,4.0,Calm,Calm,-,N/A,,Clear,0,2012-10-12 10:53:00
6:53 AM,57.0,55.0,93,30.21,2.0,Calm,Calm,-,N/A,,Clear,0,2012-10-12 11:53:00
7:03 AM,57.2,55.4,94,30.22,4.0,Calm,Calm,-,N/A,,Clear,0,2012-10-12 12:03:00
7:53 AM,61.0,59.0,93,30.23,3.0,Calm,Calm,-,0.01,,Clear,0,2012-10-12 12:53:00
8:53 AM,68.0,62.1,81,30.26,7.0,Calm,Calm,-,N/A,,Clear,0,2012-10-12 13:53:00
9:53 AM,73.9,62.1,66,30.26,10.0,Calm,Calm,-,N/A,,Clear,0,2012-10-12 14:53:00
10:53 AM,80.1,60.1,50,30.26,10.0,NNW,4.6,-,N/A,,Clear,340,2012-10-12 15:53:00
11:53 AM,82.9,61.0,47,30.25,10.0,North,8.1,-,N/A,,Clear,10,2012-10-12 16:53:00
12:53 PM,84.0,60.1,44,30.22,10.0,NE,6.9,-,N/A,,Clear,40,2012-10-12 17:53:00
1:53 PM,86.0,61.0,43,30.19,10.0,Variable,4.6,-,N/A,,Clear,0,2012-10-12 18:53:00
3:10 PM,86.0,60.8,43,30.17,10.0,Calm,Calm,-,N/A,,Scattered Clouds,0,2012-10-12 20:10:00
3:53 PM,84.0,62.1,47,30.17,10.0,NNE,3.5,-,N/A,,Partly Cloudy,30,2012-10-12 20:53:00
4:53 PM,84.0,64.0,51,30.16,10.0,NNE,3.5,-,N/A,,Clear,30,2012-10-12 21:53:00
5:53 PM,80.1,64.9,60,30.17,10.0,North,3.5,-,N/A,,Clear,350,2012-10-12 22:53:00
6:53 PM,73.0,64.9,76,30.18,10.0,Calm,Calm,-,N/A,,Clear,0,2012-10-12 23:53:00
7:53 PM,70.0,66.0,87,30.19,7.0,Calm,Calm,-,N/A,,Clear,0,2012-10-13 00:53:00
8:53 PM,68.0,64.9,90,30.20,7.0,Calm,Calm,-,N/A,,Clear,0,2012-10-13 01:53:00
9:53 PM,68.0,64.0,87,30.21,7.0,Calm,Calm,-,N/A,,Clear,0,2012-10-13 02:53:00
10:53 PM,66.0,64.0,93,30.21,5.0,Calm,Calm,-,N/A,,Clear,0,2012-10-13 03:53:00
11:53 PM,66.0,64.0,93,30.21,6.0,Calm,Calm,-,N/A,,Clear,0,2012-10-13 04:53:00